Regional Weather Roundup
Issued by NWS

Home | Current Version | Previous Version | Graphics & Text | Print | Product List | Glossary On
Versions: 1 2 3 4 5 6 7 8 9 10 11 12 13 14 15 16 17 18 19 20 21 22 23 24 25 26 27 28 29 30 31 32 33 34 35 36 37 38 39 40 41 42 43 44 45 46 47 48 49 50
000
ASUS43 KMKX 260421
RWRWI

WISCONSIN REGIONAL WEATHER ROUNDUP
NATIONAL WEATHER SERVICE MILWAUKEE/SULLIVAN WI
1100 PM CDT MON SEP 25 2017

NOTE: "FAIR" INDICATES FEW OR NO CLOUDS BELOW 12,000 FEET WITH NO
SIGNIFICANT WEATHER AND/OR OBSTRUCTIONS TO VISIBILITY.

WIZ001-002-006>008-014>016-023>028-260500-
NORTHWEST WISCONSIN

CITY           SKY/WX    TMP DP  RH WIND       PRES   REMARKS
SUPERIOR ARPT  CLOUDY    59  56  88 N6        29.99S
ASHLAND        CLOUDY    59  58  96 NE8       29.99F
HAYWARD        CLOUDY    58  55  90 N3        29.98F
SIREN          CLOUDY    56  55  95 N3        29.98F
CUMBERLAND     CLOUDY    55  54  94 NE7       29.97F
RICE LAKE      RAIN      58  57  94 CALM      29.98S
CHETEK         HVY RAIN  60  59  99 N6        29.97S
LADYSMITH      CLOUDY    60  59  94 N6        29.98F
EAU CLAIRE     CLOUDY    63  61  93 CALM      29.94F
MENOMONIE      CLOUDY    61  61  99 N3        29.95F
NEW RICHMOND   DRIZZLE   58  56  94 N5        29.98S
OSCEOLA        RAIN      58  58 100 CALM      30.01S
$$

WIZ003>005-009-010-017-018-260500-
NORTH CENTRAL WISCONSIN

CITY           SKY/WX    TMP DP  RH WIND       PRES   REMARKS
MANITOWISH WTR NOT AVBL
ARBOR VITAE    CLOUDY    62  60  95 NE3       29.99S
WOODRUFF       CLOUDY    62  60  95 NE3       29.99S
RHINELANDER    CLOUDY    64  64 100 N3        29.98F
EAGLE RIVER    CLOUDY    62  62 100 NE5       29.99S
LAND O LAKES   CLOUDY    61  61  98 CALM      30.02R
PHILLIPS       CLOUDY    58  58 100 NE6       29.97F
TOMAHAWK       FOG       60  59  97 CALM      29.98R VSB 3/4
MEDFORD        FOG       64  64  99 NE5       29.96F VSB 1/2
MERRILL        CLOUDY    65  65 100 CALM      29.96S
$$

WIZ029-030-035-036-043>047-260500-
CENTRAL WISCONSIN

CITY           SKY/WX    TMP DP  RH WIND       PRES   REMARKS
WAUSAU         MOCLDY    66  65  96 CALM      29.93F
MOSINEE        PTCLDY    63  63 100 CALM      29.96S
MARSHFIELD     CLOUDY    61  59  93 SW5       29.95S
STEVENS POINT  MOCLDY    64  64 100 CALM      29.96S
WAUPACA        CLEAR     68  65  91 CALM      29.95S
WAUTOMA        PTCLDY    67  64  90 CALM      29.95R
WISC RAPIDS    CLOUDY    67  65  93 W5        29.96R
CAMP DOUGLAS   LGT RAIN  66  66 100 NW6       29.96R
$$

WIZ011>013-019>022-031-037>040-048>050-260500-
NORTHEAST WISCONSIN

CITY           SKY/WX    TMP DP  RH WIND       PRES   REMARKS
ANTIGO         DRIZZLE   64  64 100 CALM      29.97S
SHAWANO        CLEAR     72  64  75 CALM      29.93F
OCONTO         PTCLDY    65  62  89 CALM      29.93S
STURGEON BAY   CLEAR     72  60  66 S7        29.93F
GREEN BAY      CLEAR     67  64  90 CALM      29.93F
MANITOWOC      CLEAR     68  62  81 SE3       29.93F
APPLETON       PTCLDY    70  57  64 NW7       29.93S
CLINTONVILLE   CLOUDY    70  63  78 CALM      29.94F
OSHKOSH        CLEAR     69  61  75 CALM      29.93S
$$

WIZ032>034-041-042-053>061-260500-
SOUTHWEST WISCONSIN

CITY           SKY/WX    TMP DP  RH WIND       PRES   REMARKS
LA CROSSE      MOCLDY    69  67  93 SE6       29.93F
SPARTA         RAIN      64  63  97 NW3       29.95F
VIROQUA        MOCLDY    65  65 100 CALM      29.97F
BOSCOBEL       LGT RAIN  68  66  93 CALM      29.95F
PRAIRIE DU CHI LGT RAIN  67  65  93 S3        29.96S
PLATTEVILLE    PTCLDY    69  67  93 NW7       29.97S
$$

WIZ056-057-062-063-064-067-068-260500-
SOUTH CENTRAL WISCONSIN

CITY           SKY/WX    TMP DP  RH WIND       PRES   REMARKS
REEDSBURG      CLOUDY    67  66  97 W8        29.97R
BARABOO/DELLS  CLOUDY    66  62  86 W8        29.98R
LONE ROCK      CLOUDY    69  66  90 NW6       29.95F
MINERAL POINT  PTCLDY    68  66  94 CALM      29.97S
MADISON        PTCLDY    66  63  90 CALM      29.93S
MIDDLETON      PTCLDY    66  63  89 CALM      29.94F
WATERTOWN      CLEAR     67  60  78 CALM      29.93F
MONROE         CLEAR     70  61  73 NE6       29.95R
JANESVILLE     CLEAR     70  59  68 W3        29.93S
$$

WIZ051-052-058>065-066-070>072-260500-
SOUTHEAST WISCONSIN

CITY           SKY/WX    TMP DP  RH WIND       PRES   REMARKS
MILWAUKEE      CLEAR     74  62  66 S7        29.93F
WAUKESHA       CLEAR     72  54  53 S5        29.95S
MILWAUKEE/TIMM CLEAR     73  54  49 CALM      29.94F
RACINE         CLEAR     74  64  71 S6        29.95F
BURLINGTON     CLEAR     64  61  90 CALM      29.94S
KENOSHA        CLEAR     73  59  61 S5        29.94F
FOND DU LAC    CLEAR     68  58  70 CALM      29.93S
SHEBOYGAN      CLEAR     66  63  90 CALM      29.93F
WEST BEND        N/A     64  59  82 CALM      29.94F
JUNEAU         CLEAR     71  58  64 S3        29.95S
$$

LSZ147-162-260500-
LAKE SUPERIOR

STATION/POSITION TIME  TEMP    WIND        PRES    WAVE
                       AIR SEA DIR/SP/G            HT/PER
                 (UTC) (F)     (DEG/KT/KT) (MB)    (FT/S)
W MID LAKE BUOY  0350   56 56   40/ 16/ 17 1016.0R   3/ 5
DEVILS ISLAND    0400   58      70/ 20/ 24 1015.9R
SAXON HARBOR     0330   61      60/  4/  6 1014.6F
$$

LMZ867-665-643>646-260500-
LAKE MICHIGAN

STATION/POSITION TIME  TEMP    WIND        PRES    WAVE
                       AIR SEA DIR/SP/G            HT/PER
                 (UTC) (F)     (DEG/KT/KT) (MB)    (FT/S)
S GREEN BAY BUOY 0300   72 70  170/  8/ 10 1013.1
N MID LAKE BUOY  0350   69 67  160/  8/ 10 1014.2F   1
NORTHPORT PIER   0340   73     160/  3/  5 1013.2S
KEWAUNEE LAKESHO 0354   64     100/  2/  3 1012.7F
SHEBOYGAN LAKESH 0400   72     190/  6/  6 1013.0F
PORT WASHINGTON  0330   70      80/  2/  3 1014.6S
ATWATER BUOY     0309   66 61  160/  6/  8 1013.7F
MILWAUKEE LAKESH 0400   66        CALM       N/A
S MID LAKE BUOY  0350   74 71  110/  6/  8 1013.8F   0
KENOSHA   LAKESH 0400   73     180/  7/  9 1013.5
$$

TC  - TEMPERATURE IN CELSIUS
VSB - VISIBILITY IN STATUTE MILES
WCI - WIND CHILL INDEX
HX  - HEAT INDEX




USA.gov is the U.S. government's official web portal to all federal, state and local government web resources and services.